TimeMST,TemperatureF,Dew PointF,Humidity,Sea Level PressureIn,VisibilityMPH,Wind Direction,Wind SpeedMPH,Gust SpeedMPH,PrecipitationIn,Events,Conditions,WindDirDegrees,DateUTC
12:54 AM,15.1,-8.0,36,30.35,10.0,Calm,Calm,-,N/A,,Clear,0,2012-11-13 07:54:00
1:54 AM,10.9,-8.0,42,30.35,10.0,Calm,Calm,-,N/A,,Clear,0,2012-11-13 08:54:00
2:54 AM,12.9,-7.1,41,30.35,10.0,Calm,Calm,-,N/A,,Clear,0,2012-11-13 09:54:00
3:54 AM,12.9,-7.1,41,30.37,10.0,Calm,Calm,-,N/A,,Clear,0,2012-11-13 10:54:00
4:54 AM,10.0,-9.0,42,30.38,10.0,Calm,Calm,-,N/A,,Clear,0,2012-11-13 11:54:00
5:54 AM,10.9,-7.1,44,30.40,10.0,Calm,Calm,-,N/A,,Clear,0,2012-11-13 12:54:00
6:54 AM,10.0,-8.0,44,30.44,10.0,Calm,Calm,-,N/A,,Clear,0,2012-11-13 13:54:00
7:54 AM,17.1,-5.1,37,30.42,10.0,Calm,Calm,-,N/A,,Clear,0,2012-11-13 14:54:00
8:54 AM,35.1,-0.9,22,30.35,10.0,Calm,Calm,-,N/A,,Clear,0,2012-11-13 15:54:00
9:54 AM,46.9,-4.0,12,30.34,10.0,NE,10.4,-,N/A,,Clear,40,2012-11-13 16:54:00
10:54 AM,48.9,-0.9,13,30.34,10.0,ENE,13.8,18.4,N/A,,Clear,60,2012-11-13 17:54:00
11:54 AM,51.1,-0.0,12,30.31,10.0,NE,10.4,-,N/A,,Clear,40,2012-11-13 18:54:00
12:54 PM,53.1,3.0,13,30.30,10.0,NE,6.9,-,N/A,,Clear,50,2012-11-13 19:54:00
1:54 PM,53.1,3.9,14,30.30,10.0,Variable,6.9,-,N/A,,Clear,0,2012-11-13 20:54:00
2:54 PM,54.0,1.9,12,30.27,10.0,ENE,9.2,-,N/A,,Clear,70,2012-11-13 21:54:00
3:54 PM,53.1,1.0,12,30.28,10.0,NE,10.4,-,N/A,,Clear,40,2012-11-13 22:54:00
4:54 PM,48.0,-0.9,13,30.32,10.0,NE,9.2,-,N/A,,Clear,50,2012-11-13 23:54:00
5:54 PM,37.9,-2.0,18,30.36,10.0,ENE,4.6,-,N/A,,Clear,70,2012-11-14 00:54:00
6:54 PM,28.0,-5.1,24,30.43,10.0,ENE,3.5,-,N/A,,Clear,60,2012-11-14 01:54:00
7:54 PM,24.1,-5.1,28,30.42,10.0,Calm,Calm,-,N/A,,Clear,0,2012-11-14 02:54:00
8:54 PM,17.1,-8.0,33,30.39,10.0,Calm,Calm,-,N/A,,Clear,0,2012-11-14 03:54:00
9:54 PM,19.0,-7.1,31,30.33,10.0,Calm,Calm,-,N/A,,Clear,0,2012-11-14 04:54:00
10:54 PM,16.0,-6.0,38,30.32,10.0,NE,3.5,-,N/A,,Clear,50,2012-11-14 05:54:00
11:54 PM,17.1,-6.0,36,30.32,10.0,NE,3.5,-,N/A,,Clear,50,2012-11-14 06:54:00